Location: Bas-Clignon
(44.2000°N, 6.6333°E)
Time: 03:20:30
(UTC+00:00)

Cosmos 1726 Rocket - Pass Details

Date: 03 February 2023
Orbit: 602 x 627 km, 82.5° (Epoch: 27 March)

Event Time Altitude Azimuth Distance (km) Brightness Sun altitude
Rises 17:24:27 0° 0° (N) 2,865 6.8 -7.4°
Reaches altitude 10° 17:26:53 10° 11° (NNE) 1,957 5.9 -7.8°
Maximum altitude 17:30:45 31° 74° (ENE) 1,068 4.2 -8.5°
Drops below altitude 10° 17:34:35 10° 138° (SE) 1,946 5.8 -9.2°
Sets 17:36:59 0° 148° (SSE) 2,847 6.8 -9.6°
